sat.trackr.live / text

‹ back to catalog

STARLINK-37964

NORAD 69958 · 2026-157R

PAYLOAD ACTIVE UNKNOWN

§ Identity

Operator
Country
US
Launch date
2026-07-09
Launch site
AFETR
Launch vehicle
Mass (kg)
RCS (m²)

Purposes: comms

External: N2YO · Heavens-Above · Gunter

§ Orbital elements

Epoch: 2026-09-19T11:48:46.340064Z

Period
93.85 min
Inclination
53.1586°
Eccentricity
0.0001088
Mean motion
15.34383650 rev/d
Perigee alt
462.0 km
Apogee alt
463.5 km
Semi-major
6,840.9 km
B*
6.1014e-4
RAAN
338.7679°
Arg perigee
97.5604°
Mean anomaly
262.5522°
Rev number
1,121

§ Raw data

STARLINK-379641 69958U 26157R   26262.49220301  .00020284  00000+0  61014-3 0  99972 69958  53.1586 338.7679 0001088  97.5604 262.5522 15.34383650 11215

JSON: /api/v1/satellites/69958 · /tle

For live sub-satellite position, see the globe view (requires WebGL).

§ Visibility from observer

Set your observer location to see the next 7 days of passes ≥ 10°. The values pass through the URL so the page stays shareable.

No JS? Fill the form by hand. The geolocation button needs JavaScript.